Weather History for Rolla, MO

Change the Weather History Date:

Wednesday, July 17, 2013

  Actual Average Record
Temperature  
Mean Temperature 82 °F 78 °F  
Max Temperature 94 °F 88 °F 108 °F (1954)
Min Temperature 70 °F 67 °F 51 °F (2014)
Degree Days  
Heating Degree Days 0 0  
Month to date heating degree days 0 0  
Since 1 June heating degree days 17 14  
Since 1 July heating degree days 0 0  
Cooling Degree Days 17 13  
Month to date cooling degree days 162 202  
Year to date cooling degree days 486 544  
Since 1 June cooling degree days 379 437  
Growing Degree Days 32 (Base 50)    
Moisture  
Dew Point 70 °F    
Average Humidity 69    
Maximum Humidity 93    
Minimum Humidity 44    
Precipitation  
Precipitation 0.00 in 0.15 in 0.79 in (1900)
Month to date precipitation 1.60 2.46  
Year to date precipitation 26.69 23.90  
Sea Level Pressure  
Sea Level Pressure 30.26 in    
Wind  
Wind Speed 3 mph (SE)    
Max Wind Speed 7 mph    
Max Gust Speed 9 mph    
Visibility 10 miles    
Events      
T = Trace of Precipitation, MM = Missing Value Source: NWS Daily Summary

Daily Weather History Graph

Daily Weather History Graph

Search for Another Location

Airport:

Trip Planner

Search our weather history database for the weather conditions in past years. The results will help you decide how hot, cold, wet, or windy it might be!

Date:

Astronomy

Jul. 17, 2013 Rise Set
Actual Time 5:57 AM CDT 8:28 PM CDT
Civil Twilight 5:27 AM CDT 8:58 PM CDT
Nautical Twilight 4:49 AM CDT 9:36 PM CDT
Astronomical Twilight 4:07 AM CDT 10:18 PM CDT
Moon 3:18 PM CDT (7/17) 1:03 AM CDT (7/17)
Length of Visible Light 15h 31m
Length of Day
14h 30m
Waxing Gibbous, 67% of the Moon is Illuminated
Jul 17
Waxing Gibbous
Jul 22
Full
Jul 29
Last Quarter
Aug 6
New
Aug 14
First Quarter

Hourly Weather History & Observations

Time (CDT) Temp. Heat Index Dew Point Humidity Pressure Visibility Wind Dir Wind Speed Gust Speed Precip Events Conditions
12:53 AM 75.0 °F - 70.0 °F 84% 30.28 in 10.0 mi SE 5.8 mph - N/A   Clear
1:53 AM 72.0 °F - 69.1 °F 91% 30.28 in 10.0 mi SSE 3.5 mph - N/A   Clear
2:53 AM 73.0 °F - 69.1 °F 87% 30.27 in 10.0 mi South 4.6 mph - N/A   Clear
3:53 AM 71.1 °F - 69.1 °F 93% 30.27 in 10.0 mi Calm Calm - N/A   Clear
4:53 AM 71.1 °F - 69.1 °F 93% 30.27 in 10.0 mi Calm Calm - N/A   Clear
5:53 AM 72.0 °F - 70.0 °F 93% 30.29 in 10.0 mi SSE 3.5 mph - N/A   Clear
6:53 AM 73.9 °F - 70.0 °F 87% 30.29 in 10.0 mi Calm Calm - N/A   Clear
7:53 AM 78.1 °F - 71.1 °F 79% 30.31 in 10.0 mi SSE 4.6 mph - N/A   Clear
8:53 AM 81.0 °F 84.9 °F 71.1 °F 72% 30.32 in 10.0 mi Variable 3.5 mph - N/A   Clear
9:53 AM 84.0 °F 90.2 °F 73.0 °F 69% 30.32 in 10.0 mi SW 5.8 mph - N/A   Clear
10:53 AM 84.9 °F 90.1 °F 71.1 °F 63% 30.32 in 10.0 mi Calm Calm - N/A   Clear
11:53 AM 87.1 °F 92.0 °F 70.0 °F 57% 30.30 in 10.0 mi Calm Calm - N/A   Clear
12:53 PM 93.0 °F 97.4 °F 68.0 °F 44% 30.29 in - North - - N/A   Clear
1:53 PM 91.0 °F 95.6 °F 69.1 °F 48% 30.28 in - ESE 3.5 mph - N/A   Unknown
2:53 PM 87.1 °F 91.3 °F 69.1 °F 55% 30.26 in 10.0 mi SSE 3.5 mph - N/A   Mostly Cloudy
3:53 PM 90.0 °F 94.5 °F 69.1 °F 50% 30.24 in 10.0 mi SSE 4.6 mph - N/A   Clear
4:53 PM 90.0 °F 92.8 °F 66.9 °F 46% 30.21 in 10.0 mi Calm Calm - N/A   Clear
5:53 PM 90.0 °F 92.8 °F 66.9 °F 46% 30.20 in 10.0 mi SSE 3.5 mph - N/A   Clear
6:53 PM 89.1 °F 92.9 °F 68.0 °F 50% 30.19 in 10.0 mi East 3.5 mph - N/A   Clear
7:53 PM 86.0 °F 91.5 °F 71.1 °F 61% 30.18 in 10.0 mi ESE 3.5 mph - N/A   Clear
8:53 PM 80.1 °F 83.6 °F 71.1 °F 74% 30.19 in 10.0 mi ESE 5.8 mph - N/A   Clear
9:53 PM 78.1 °F - 71.1 °F 79% 30.20 in 10.0 mi ESE 6.9 mph - N/A   Clear
10:53 PM 77.0 °F - 71.1 °F 82% 30.22 in 10.0 mi ESE 4.6 mph - N/A   Clear
11:53 PM 73.9 °F - 71.1 °F 91% 30.21 in 10.0 mi Calm Calm - N/A   Clear